STARLINK-1212, 45223

Orbit data source: Space-Track

STARLINK-1212, 45223 is a payload satellite owned by SpaceX/Seattle (US) in LEO that was launched on Mon, 17 Feb 2020 UTC via an FALCON 9 launch vehicle from the Air Force Eastern Test Range (AFETR). Payload-class satellites include a variety of spacecraft equipped with specific instruments for various scientific and technological missions. These include communications satellites like Starlink; space stations such as the ISS; scientific satellites like the Hubble; Earth observation satellites from companies like Planet Labs, Umbra, and HawkEye 360; GPS; miniature CubeSats for education and research; and military/defense satellites.

Loading next visibility...
Identifier
45223, 2020-012AX
Orbit
LEO
Country
Flag of USUS
Related business
Manufacturer
SpaceX/Seattle
Mission
Operational Commercial Communications
Bus & Motor
STARLINK, Unknown motor
Mass
260 kg wet, ~248 kg dry
Launch date (UTC)
2020-02-17 (6 years ago)
Launch vehicle
FALCON 9
Launch site
Air Force Eastern Test Range (AFETR)
Object type
Payload
Rocket body
Debris
Shape & HBR
Box + 1 Pan, 10.1 m
Radar Cross Section
13.562 m², Large (>1 m²)

Expand to show TLE details & history
Last TLE update: 17 hours ago

TLE from 17 hours ago
0 STARLINK-1212
1 45223U 20012AX  25288.31500171  .00000143  00000-0  28509-4 0  9990
2 45223  53.0538 299.8867 0001273  75.9374 284.1757 15.06393857313489
Epoch: 2025-10-15T07:33Z
TLE epoch observation values (Epoch: 2025-10-15T07:33:36.147Z)
Latitude
0.00001°
Longitude
162.39525°
Altitude
547.894 km
Speed
7.589 km/s
True Right ascension
19h 59m 32s
True Declination
0° 00' 00"
Sunlit
Object was in daylight at epoch
Visualization orbit readout
Latitude
Unknown
Longitude
Unknown
Altitude
Unknown
Speed
Unknown
Apparent Right ascension
Unknown
Apparent Declination
Unknown
Sunlit
N/A
Visualization observer readout
Local Sidereal Time
19:05:26
Azimuth
Unknown
Elevation
Unknown
Doppler factor
Unknown
Orbital elements
Apogee altitude
548.383 km
Perigee altitude
546.62 km
Semi-major axis
6,925.638 km
Eccentricity
0.00013
Inclination
53.0538°
RAAN
299.8867°
Arg. of periapsis
75.9374°
True anomaly
284.16156°
Mean anomaly
284.1757°
Eccentric anomaly
284.16863°
Mean motion
3.76577 °/min
Orbital period
95.6 mins
BSTAR
0.000028509
Loading maneuver chart data...
Computing Atmospheric mass density...
Loading historical data...
Loading historical data...
Loading historical data...
Loading historical data...
Loading historical data...
Loading historical data...
Loading historical data...

Documentation

Showing up to 5 results
|